Oscoda, MI

8:03 PM EDT on August 31, 2016 (GMT -0400)
Oscoda-Wurtsmith

Weather History for KOSC - January, 2013

Change the Weather History Date:

Saturday, January 5, 2013

  Actual Average Record
Temperature  
Mean Temperature 22 °F -  
Max Temperature 33 °F 28 °F 50 °F (2007)
Min Temperature 11 °F 15 °F -5 °F (2015)
Degree Days  
Heating Degree Days 43    
Moisture  
Dew Point 22 °F    
Average Humidity 85    
Maximum Humidity 95    
Minimum Humidity 63    
Precipitation  
Precipitation 0.00 in - - ()
Sea Level Pressure  
Sea Level Pressure 30.08 in    
Wind  
Wind Speed 7 mph (SSW)    
Max Wind Speed 15 mph    
Max Gust Speed 24 mph    
Visibility 7 miles    
Events Snow    
Averages and records for this station are not official NWS values.
T = Trace of Precipitation, MM = Missing Value Source: NWS Daily Summary

Daily Weather History Graph

Daily Weather History Graph

Search for Another Location

Airport or City:

Trip Planner

Search our weather history database for the weather conditions in past years. The results will help you decide how hot, cold, wet, or windy it might be!

Date:

Astronomy

Jan. 05, 2013 Rise Set
Actual Time 8:09 AM EST 5:08 PM EST
Civil Twilight 7:36 AM EST 5:41 PM EST
Nautical Twilight 7:00 AM EST 6:18 PM EST
Astronomical Twilight 6:25 AM EST 6:53 PM EST
Moon 1:06 AM EST (1/5) 12:05 PM EST (1/5)
Length of Visible Light 10h 05m
Length of Day
8h 59m
Last Quarter, 44% of the Moon is Illuminated
Jan 5
Last Quarter
Jan 11
New
Jan 18
First Quarter
Jan 26
Full
Feb 3
Last Quarter

Hourly Weather History & Observations

Time (EST) Temp. Windchill Dew Point Humidity Pressure Visibility Wind Dir Wind Speed Gust Speed Precip Events Conditions
12:14 AM 22.1 °F 12.0 °F 19.2 °F 89% 30.08 in 10.0 mi WSW 9.2 mph - N/A   Scattered Clouds
12:34 AM 20.3 °F 10.6 °F 18.1 °F 91% 30.08 in 7.0 mi WSW 8.1 mph - N/A   Clear
12:53 AM 19.2 °F 9.3 °F 17.4 °F 93% 30.10 in 7.0 mi SW 8.1 mph - N/A   Clear
1:14 AM 22.3 °F 13.0 °F 20.3 °F 92% 30.10 in 7.0 mi SW 8.1 mph - N/A   Mostly Cloudy
1:34 AM 23.9 °F 15.0 °F 21.2 °F 89% 30.10 in 10.0 mi WSW 8.1 mph - N/A   Overcast
1:53 AM 23.9 °F 15.8 °F 21.2 °F 89% 30.11 in 10.0 mi WSW 6.9 mph - N/A   Overcast
2:14 AM 23.7 °F 15.6 °F 21.0 °F 89% 30.12 in 10.0 mi WSW 6.9 mph - N/A   Overcast
2:34 AM 23.9 °F 15.8 °F 21.2 °F 89% 30.13 in 7.0 mi WSW 6.9 mph - N/A   Overcast
2:53 AM 23.9 °F 15.8 °F 21.2 °F 89% 30.14 in 10.0 mi West 6.9 mph - N/A   Overcast
3:14 AM 22.8 °F 15.5 °F 20.1 °F 89% 30.15 in 7.0 mi West 5.8 mph - N/A   Overcast
3:34 AM 20.5 °F 12.8 °F 18.3 °F 91% 30.16 in 7.0 mi WSW 5.8 mph - N/A   Overcast
3:53 AM 21.7 °F 14.3 °F 19.9 °F 93% 30.16 in 7.0 mi WSW 5.8 mph - N/A   Overcast
4:14 AM 23.2 °F 15.0 °F 21.2 °F 92% 30.17 in 7.0 mi WSW 6.9 mph - N/A   Overcast
4:34 AM 22.6 °F 18.0 °F 20.7 °F 92% 30.17 in 7.0 mi WSW 3.5 mph - N/A   Overcast
4:53 AM 22.3 °F 17.6 °F 20.3 °F 92% 30.18 in 7.0 mi West 3.5 mph - N/A   Overcast
5:14 AM 21.4 °F - 19.8 °F 93% 30.17 in 7.0 mi Calm Calm - N/A   Scattered Clouds
5:34 AM 21.7 °F - 20.1 °F 93% 30.18 in 7.0 mi Calm Calm - N/A   Clear
5:53 AM 19.4 °F 12.8 °F 18.1 °F 95% 30.18 in 5.0 mi SW 4.6 mph - N/A   Clear
6:14 AM 15.1 °F 5.2 °F 12.9 °F 91% 30.19 in 5.0 mi SW 6.9 mph - N/A   Clear
6:33 AM 15.8 °F 8.6 °F 14.7 °F 95% 30.20 in 5.0 mi SW 4.6 mph - N/A   Clear
6:53 AM 15.8 °F 10.2 °F 14.2 °F 93% 30.19 in 4.0 mi SW 3.5 mph - N/A   Clear
7:14 AM 15.1 °F - 13.6 °F 94% 30.19 in 4.0 mi Calm Calm - N/A   Clear
7:33 AM 14.9 °F - 13.1 °F 93% 30.20 in 7.0 mi Calm Calm - N/A   Clear
7:53 AM 12.7 °F - 10.0 °F 89% 30.19 in 7.0 mi Calm Calm - N/A   Clear
8:14 AM 12.2 °F - 9.3 °F 88% 30.19 in 2.5 mi Calm Calm - N/A   Clear
8:33 AM 11.8 °F - 8.6 °F 87% 30.19 in 10.0 mi Calm Calm - N/A   Clear
8:53 AM 12.7 °F - 10.0 °F 89% 30.20 in 7.0 mi Calm Calm - N/A   Clear
9:14 AM 16.2 °F - 14.2 °F 92% 30.20 in 7.0 mi Calm Calm - N/A   Clear
9:33 AM 19.0 °F - 16.7 °F 91% 30.20 in 7.0 mi Calm Calm - N/A   Clear
9:53 AM 21.2 °F - 18.1 °F 88% 30.20 in 7.0 mi Calm Calm - N/A   Clear
10:14 AM 25.3 °F - 21.2 °F 84% 30.20 in 10.0 mi Calm Calm - N/A   Clear
10:33 AM 28.0 °F - 22.5 °F 80% 30.21 in 10.0 mi Calm Calm - N/A   Clear
10:53 AM 30.2 °F 25.4 °F 21.0 °F 69% 30.20 in 10.0 mi ESE 4.6 mph - N/A   Clear
11:14 AM 32.0 °F 27.5 °F 20.8 °F 63% 30.19 in 10.0 mi South 4.6 mph - N/A   Clear
11:33 AM 32.2 °F 25.8 °F 22.5 °F 67% 30.19 in 10.0 mi South 6.9 mph - N/A   Clear
11:54 AM 32.0 °F 24.8 °F 24.8 °F 75% 30.17 in 10.0 mi South 8.1 mph - N/A   Clear
12:14 PM 32.0 °F 23.6 °F 24.8 °F 75% 30.16 in 10.0 mi South 10.4 mph - N/A   Scattered Clouds
12:33 PM 32.0 °F 23.6 °F 24.6 °F 74% 30.14 in 10.0 mi SSE 10.4 mph - N/A   Scattered Clouds
12:54 PM 33.1 °F 24.4 °F 24.1 °F 70% 30.12 in 10.0 mi South 11.5 mph 17.3 mph N/A   Scattered Clouds
1:14 PM 33.1 °F 26.1 °F 23.7 °F 68% 30.09 in 10.0 mi South 8.1 mph - N/A   Scattered Clouds
1:33 PM 33.1 °F 24.4 °F 24.1 °F 70% 30.08 in 10.0 mi South 11.5 mph - N/A   Clear
1:54 PM 32.2 °F 23.2 °F 25.3 °F 76% 30.06 in 10.0 mi South 11.5 mph - N/A   Scattered Clouds
2:14 PM 31.6 °F 21.2 °F 25.7 °F 79% 30.05 in 10.0 mi South 15.0 mph 24.2 mph N/A   Scattered Clouds
2:33 PM 31.5 °F 22.9 °F 25.7 °F 79% 30.05 in 7.0 mi South 10.4 mph 16.1 mph N/A   Mostly Cloudy
2:54 PM 30.9 °F 24.3 °F 25.7 °F 81% 30.04 in 7.0 mi South 6.9 mph - N/A   Overcast
3:14 PM 30.9 °F 21.2 °F 25.7 °F 81% 30.05 in 7.0 mi SSW 12.7 mph 16.1 mph N/A   Overcast
3:33 PM 30.9 °F 22.2 °F 25.9 °F 82% 30.04 in 7.0 mi SSW 10.4 mph 20.7 mph N/A   Overcast
3:54 PM 30.7 °F 22.6 °F 25.7 °F 82% 30.03 in 7.0 mi SSW 9.2 mph - N/A   Overcast
4:14 PM 30.2 °F 19.8 °F 25.3 °F 82% 30.03 in 7.0 mi SSW 13.8 mph 18.4 mph N/A   Overcast
4:33 PM 30.2 °F 20.2 °F 25.5 °F 83% 30.02 in 7.0 mi SSW 12.7 mph - N/A   Overcast
4:54 PM 30.2 °F 21.3 °F 25.3 °F 82% 30.02 in 7.0 mi SSW 10.4 mph - N/A   Overcast
5:14 PM 30.2 °F 21.9 °F 25.5 °F 83% 30.01 in 7.0 mi SSW 9.2 mph - N/A   Overcast
5:54 PM 30.2 °F 24.3 °F 25.2 °F 82% 29.99 in 7.0 mi South 5.8 mph - N/A   Overcast
6:13 PM 30.2 °F 23.4 °F 25.2 °F 82% 29.99 in 7.0 mi South 6.9 mph - N/A   Overcast
6:33 PM 29.8 °F 23.9 °F 25.2 °F 83% 29.98 in 7.0 mi South 5.8 mph - N/A   Scattered Clouds
6:54 PM 30.0 °F 23.2 °F 25.3 °F 83% 29.98 in 7.0 mi SSW 6.9 mph - N/A   Scattered Clouds
7:13 PM 30.2 °F 23.4 °F 25.7 °F 83% 29.97 in 7.0 mi South 6.9 mph - N/A   Mostly Cloudy
7:33 PM 30.2 °F 25.4 °F 25.7 °F 83% 29.96 in 7.0 mi South 4.6 mph - N/A   Scattered Clouds
7:54 PM 30.2 °F 25.4 °F 25.7 °F 83% 29.96 in 7.0 mi SSW 4.6 mph - N/A   Clear
8:13 PM 30.4 °F 23.6 °F 25.9 °F 83% 29.95 in 7.0 mi SSW 6.9 mph - N/A   Clear
8:34 PM 31.1 °F 23.7 °F 26.2 °F 82% 29.94 in 7.0 mi South 8.1 mph - N/A   Scattered Clouds
8:54 PM 31.8 °F 22.3 °F 26.4 °F 80% 29.94 in 7.0 mi SSW 12.7 mph - N/A   Overcast
9:13 PM 31.8 °F 21.8 °F 26.2 °F 80% 29.93 in 7.0 mi SSW 13.8 mph - N/A   Overcast
9:34 PM 31.3 °F 21.6 °F 27.7 °F 87% 29.92 in 3.0 mi SSW 12.7 mph - N/A Snow Light Snow
9:54 PM 30.7 °F 22.0 °F 28.8 °F 92% 29.91 in 2.0 mi SSW 10.4 mph - N/A Snow Light Snow
10:13 PM 31.1 °F 21.9 °F 29.3 °F 93% 29.90 in 1.5 mi SSW 11.5 mph 18.4 mph N/A Snow Light Snow
10:34 PM 30.9 °F 21.7 °F 29.3 °F 94% 29.90 in 1.2 mi SSW 11.5 mph - N/A Snow Light Snow
10:54 PM 31.1 °F 21.9 °F 29.7 °F 94% 29.90 in 2.5 mi SSW 11.5 mph - N/A Snow Light Snow
11:13 PM 31.1 °F 23.1 °F 29.8 °F 95% 29.90 in 2.5 mi SSW 9.2 mph - N/A Snow Light Snow
11:34 PM 31.1 °F 21.4 °F 29.8 °F 95% 29.89 in 3.0 mi SSW 12.7 mph - N/A Snow Light Snow
11:54 PM 31.5 °F 22.3 °F 30.0 °F 94% 29.88 in 3.0 mi SSW 11.5 mph - N/A Snow Light Snow